Temperature
21 21 20 20 20 19 19 18 18 18 18 17 17 16 16 16 16 16 16 16 16 16 16 16 16 17 17 17 17 17 17 17 17 17 17 16 16 17 16 17 17 17 17
21 21 21 20 20 19 19 18 18 18 18 17 17 16 16 16 16 16 16 16 16 16 16 16 16 16 16 16 16 16 16 17 17 17 17 16 16 16 16 16 17 17 17
21 20 20 20 19 19 19 18 18 18 18 17 17 17 16 16 16 16 16 16 16 16 16 16 16 16 16 16 16 16 16 16 17 17 17 17 16 16 17 16 17 17 17
20 20 19 19 19 19 18 18 18 18 17 17 17 16 16 16 15 15 15 16 16 16 16 16 16 16 16 16 16 16 16 16 16 16 16 16 17 17 17 17 17 17 17
19 19 18 18 18 18 18 18 17 17 17 17 16 16 16 15 15 15 15 15 15 15 16 16 16 16 16 16 16 16 16 16 16 16 16 16 16 17 17 17 17 17 17
18 18 18 17 17 17 17 17 17 16 16 16 16 16 16 15 15 15 15 15 15 15 15 15 15 16 16 16 16 16 16 16 16 16 16 16 16 16 16 17 17 17 17
17 17 17 17 17 16 16 16 16 16 16 16 16 15 15 15 15 15 15 15 15 15 15 15 15 15 15 15 16 16 16 15 15 16 16 16 16 16 16 16 16 17 17
16 16 16 16 16 16 16 16 15 15 15 15 15 15 15 15 14 14 14 14 15 15 15 15 15 15 15 15 15 15 15 15 15 15 15 16 16 16 16 16 16 16 17
16 16 16 16 15 15 15 15 15 15 15 14 14 14 14 14 14 14 14 14 14 14 15 15 15 15 15 15 15 15 15 15 15 15 15 15 16 16 16 16 16 16 16
15 15 15 15 15 15 14 14 14 14 14 14 14 14 14 14 14 14 14 14 14 14 14 14 14 14 14 15 15 15 15 15 15 15 15 15 15 15 16 16 16 16 16
13 13 13 14 14 14 14 14 13 13 13 13 13 14 14 14 14 14 14 14 14 14 14 14 14 14 14 14 14 14 15 15 15 15 15 15 15 15 15 16 16 16 16
12 12 12 13 13 13 13 13 13 13 13 13 13 13 13 13 13 13 13 13 13 13 13 13 14 13 13 13 14 14 14 14 15 15 15 15 15 15 15 15 15 16 16
10 11 11 12 12 12 13 13 13 13 13 13 13 13 13 13 13 13 13 13 13 13 13 13 13 13 13 13 13 13 14 14 15 15 15 14 15 15 15 15 15 15 15
10 10 10 11 11 12 12 12 12 12 13 13 12 12 13 13 13 13 13 13 13 13 13 13 13 13 13 13 13 13 13 14 14 15 15 15 14 15 14 15 15 15 15
9 9 9 10 10 11 11 11 11 12 12 12 12 12 12 12 12 13 13 13 13 13 13 13 12 12 12 12 12 12 13 13 13 14 14 15 14 14 14 14 15 15 15
7 8 8 9 9 10 10 10 10 11 11 11 12 12 12 12 12 12 13 13 13 13 12 12 12 12 12 12 12 12 12 12 13 13 13 14 14 14 14 14 14 15 15
6 7 7 8 8 8 9 9 9 10 10 11 11 11 11 12 12 12 12 12 12 12 12 12 12 12 12 12 12 12 12 12 12 12 13 13 14 14 14 14 14 14 15
6 6 6 7 7 7 7 7 7 8 8 9 9 10 10 11 11 11 11 11 12 12 12 12 12 12 12 12 12 12 12 12 12 12 12 13 13 14 14 14 14 14 14
5 5 5 6 6 6 6 6 6 6 6 6 7 7 8 9 9 9 10 10 11 11 11 11 11 11 11 11 11 11 11 11 11 12 12 12 13 13 13 14 14 14 14
4 4 4 4 4 4 5 5 5 5 4 4 4 5 5 6 6 7 8 8 9 9 10 10 10 11 11 11 11 11 11 11 11 11 12 12 12 13 13 13 14 14 13
4 4 3 3 3 3 3 3 3 3 2 3 3 3 3 4 4 5 5 6 7 8 8 9 9 10 10 10 10 10 10 11 11 11 11 12 12 12 13 13 13 13 13
2 2 2 2 1 1 0 0 0 0 1 1 1 2 2 3 3 3 3 4 5 6 7 8 8 9 9 9 9 9 10 10 10 11 11 11 12 12 12 13 13 13 13
1 1 0 0 -0 -1 -1 -1 -1 -1 -1 -0 0 1 1 2 2 2 3 3 3 4 5 6 7 8 8 9 9 9 9 9 10 10 11 11 12 12 12 12 13 13 13
-1 -1 -1 -1 -1 -2 -2 -2 -3 -3 -3 -3 -2 -1 0 1 1 1 2 2 2 3 3 4 6 6 7 8 8 9 9 9 9 10 10 10 11 11 12 12 12 12 12
-2 -2 -2 -2 -2 -3 -3 -3 -4 -4 -4 -4 -4 -3 -2 -1 -0 0 0 1 1 2 2 3 4 5 6 6 7 8 8 8 9 9 9 9 10 10 11 11 11 12 12
-3 -3 -4 -4 -4 -4 -4 -4 -5 -5 -5 -5 -5 -4 -4 -4 -3 -2 -1 -1 -0 0 1 2 3 4 5 5 6 6 7 8 8 8 9 9 9 10 10 10 11 11 11
Wind_Speed
5 7 11 11 9 8 6 4 3 2 1 1 1 1 2 2 3 2 2 1 1 1 1 0 1 1 1 2 3 4 4 4 4 5 6 7 9 9 8 8 7 7 7
4 10 11 10 9 8 6 5 3 2 1 0 1 1 1 1 1 2 3 3 3 3 3 2 2 2 1 2 3 4 4 4 5 6 6 6 7 8 8 8 8 7 7
5 8 8 9 8 7 6 5 3 3 2 1 2 2 3 3 3 4 5 6 6 6 6 5 5 4 3 3 3 4 4 4 4 5 5 4 4 6 7 8 8 8 7
6 6 4 7 7 6 6 5 5 4 3 3 3 4 4 5 5 6 6 6 7 8 9 8 7 5 4 4 5 5 5 5 5 4 4 3 2 5 6 7 7 8 8
6 4 2 5 5 5 5 5 5 5 5 5 5 5 6 6 7 6 6 6 6 7 9 9 7 6 5 5 6 7 7 7 6 5 3 2 3 4 6 7 7 8 8
7 6 3 2 3 4 5 6 6 6 6 6 6 7 7 8 8 7 6 5 6 7 6 7 7 6 6 5 6 7 8 8 7 5 4 4 6 7 8 8 8 8 8
9 12 11 6 5 5 5 6 6 6 7 7 8 8 9 10 10 9 6 5 6 7 7 6 6 6 6 6 6 8 8 7 7 6 5 5 7 10 11 10 10 10 9
15 19 20 18 15 10 7 6 6 7 7 8 9 9 10 10 11 10 8 7 6 7 7 6 6 6 6 6 7 8 8 7 7 7 7 7 8 11 13 12 12 11 10
24 24 24 24 22 19 14 11 9 8 9 9 10 11 11 11 11 10 9 8 8 8 8 8 7 6 6 6 7 8 8 7 5 6 7 7 9 13 14 14 14 13 12
22 24 25 27 26 23 20 21 19 17 15 14 13 13 13 12 11 11 10 9 10 10 10 10 10 9 8 7 7 8 9 8 5 6 7 8 9 13 16 16 15 15 14
24 21 24 25 27 25 23 25 26 24 24 22 19 18 15 11 10 10 11 12 12 13 13 13 13 11 10 8 8 8 8 7 6 6 8 10 11 13 16 17 17 16 15
22 20 20 23 25 25 23 23 23 22 23 22 22 22 16 13 10 10 11 13 13 14 14 15 15 13 10 7 8 8 7 7 7 7 9 12 14 15 16 17 18 18 17
12 16 18 21 24 24 20 20 20 19 20 22 24 24 21 16 13 12 10 10 11 10 9 10 10 8 7 6 6 7 8 8 7 8 10 13 15 17 17 18 19 19 18
16 18 16 21 22 22 21 18 19 18 18 18 21 24 20 12 11 11 8 10 9 8 6 6 5 6 6 7 7 7 8 7 8 9 11 15 17 18 18 19 20 21 20
19 19 17 18 20 21 18 18 18 17 17 18 19 22 21 12 8 9 8 9 9 9 6 4 4 5 5 5 6 6 6 8 9 11 11 15 17 19 20 20 21 22 21
18 18 17 15 21 21 17 15 14 17 17 18 18 20 21 17 13 10 8 7 8 9 8 6 5 5 5 5 6 6 6 8 9 10 12 14 17 19 21 22 23 23 23
16 16 18 16 22 20 17 17 17 17 18 16 17 19 20 20 17 13 9 9 8 12 10 7 6 4 5 5 7 7 6 6 7 9 11 12 13 17 21 23 24 24 24
15 16 17 18 18 17 17 16 17 17 18 17 18 19 20 21 19 14 9 10 13 13 7 7 6 5 6 6 6 6 6 6 7 8 9 11 12 13 16 22 24 25 25
14 15 16 16 16 16 17 17 16 16 15 17 18 19 21 21 21 16 9 9 15 9 8 8 6 5 6 6 7 7 6 6 7 7 7 8 11 13 14 16 21 24 26
13 14 14 15 15 15 13 11 9 9 11 15 16 18 21 21 21 18 11 12 13 10 9 8 8 7 6 7 7 6 6 6 6 7 8 7 8 12 14 14 14 16 23
17 17 17 17 16 14 13 13 12 11 11 10 13 19 21 21 21 17 11 11 11 11 11 12 9 9 7 5 4 5 5 6 7 7 7 7 8 9 11 12 12 12 13
17 17 17 17 17 15 14 12 9 10 9 10 14 18 20 21 20 17 12 12 12 12 13 12 10 7 6 5 5 4 4 4 5 6 5 7 8 7 8 9 10 11 12
15 17 18 17 17 15 14 11 12 10 10 11 13 13 18 22 21 18 15 12 13 11 11 13 11 10 9 7 7 6 5 6 4 3 3 4 5 6 7 7 8 11 13
15 16 17 18 17 15 14 14 15 13 13 14 13 13 16 20 19 18 17 14 13 12 12 12 12 10 9 9 6 7 5 5 5 3 3 3 4 5 6 6 8 8 11
14 15 16 17 17 17 16 17 16 14 13 13 14 15 14 13 16 17 18 14 14 13 14 13 13 11 8 8 7 5 5 3 3 5 4 3 3 3 3 5 5 6 8
14 15 16 17 17 18 18 18 18 18 18 18 19 17 16 14 13 15 18 14 14 14 15 14 12 12 9 8 7 5 4 4 5 5 6 5 4 3 2 2 3 4 5
Wind_Direction
223 207 197 172 173 172 171 173 172 161 121 86 80 89 87 81 65 51 52 77 79 54 25 105 126 121 123 134 136 127 116 105 99 101 114 131 134 134 135 133 125 113 111
171 180 188 173 176 178 180 183 181 181 176 67 14 356 331 303 298 306 303 300 286 273 267 261 245 229 213 191 169 156 146 125 102 91 90 105 128 136 138 142 136 134 127
118 163 181 175 181 184 188 194 196 205 219 255 307 317 312 300 285 289 284 282 275 266 259 253 247 244 238 222 204 192 177 159 136 115 102 103 128 143 141 144 150 147 144
111 143 160 182 189 195 200 206 211 219 231 245 267 288 293 295 290 292 287 290 285 269 260 256 252 247 241 231 222 217 201 183 168 148 136 141 159 162 155 152 153 153 155
89 111 139 196 205 214 219 224 228 231 238 246 256 271 281 282 289 294 296 303 309 289 265 255 252 248 241 230 229 229 218 198 187 176 178 198 229 207 176 167 158 155 156
54 44 22 246 242 245 245 245 245 245 247 251 258 267 279 280 285 293 296 307 316 312 288 264 255 253 248 236 231 234 232 213 193 191 209 233 235 227 197 177 165 158 156
32 23 13 347 321 292 271 262 257 256 259 263 265 268 279 284 285 287 278 283 298 305 302 287 275 271 265 255 248 245 242 229 192 196 219 241 239 224 205 186 178 169 163
31 24 17 6 357 341 314 289 275 268 266 270 272 272 273 279 287 288 274 262 273 285 290 291 287 287 286 279 273 270 264 252 207 202 220 240 246 228 211 194 187 180 173
32 27 20 14 8 360 350 335 316 301 291 285 282 283 283 281 285 288 289 273 264 271 277 278 277 278 283 288 289 287 284 275 226 210 221 235 246 234 219 204 195 191 185
30 25 18 16 14 11 10 8 2 356 347 333 317 306 298 288 283 284 285 282 273 270 269 268 268 268 271 278 286 290 288 284 248 226 229 239 249 241 229 214 203 200 195
27 24 19 18 16 15 18 18 15 13 9 5 355 342 326 306 292 283 279 277 274 272 268 265 262 261 265 272 278 286 292 278 256 237 236 243 251 251 240 225 211 205 202
22 22 22 20 18 17 17 15 13 12 10 10 7 1 352 339 322 306 293 287 282 280 277 270 263 261 263 265 271 278 280 276 264 250 247 249 252 254 249 234 220 211 207
18 24 22 21 20 21 17 16 14 9 8 7 8 6 2 358 350 340 324 312 305 297 289 280 272 261 257 256 261 264 263 266 261 256 254 255 257 256 255 243 229 217 211
24 20 17 19 19 18 18 16 16 12 8 6 3 6 6 0 355 347 336 324 313 302 290 279 265 255 253 254 253 255 257 255 256 255 254 253 256 257 257 250 236 224 216
21 15 9 13 14 11 13 13 14 10 8 3 4 5 4 360 351 344 337 331 320 311 295 281 267 258 251 251 248 244 246 250 253 253 254 252 250 252 254 254 242 231 223
15 10 4 9 9 6 6 4 5 4 2 3 3 1 2 358 351 344 335 330 325 317 301 282 267 263 257 248 248 237 238 246 251 252 251 252 249 248 250 251 246 235 228
10 7 5 4 4 1 360 358 358 356 357 358 357 357 359 357 351 344 334 329 325 321 309 291 273 257 255 250 249 245 237 237 243 249 251 248 247 246 245 246 246 236 230
9 5 3 2 359 356 354 351 351 351 353 353 352 352 355 353 350 344 334 327 324 321 310 296 277 263 250 241 244 245 237 235 238 243 247 246 243 243 242 241 242 234 229
7 2 359 357 356 352 349 346 343 344 347 347 348 349 349 348 348 343 330 325 325 319 309 301 289 259 255 247 242 244 239 236 239 242 241 242 241 239 238 237 237 233 226
4 0 357 355 353 349 347 343 338 339 341 341 343 345 344 343 343 340 333 331 328 320 313 304 292 274 253 249 253 249 242 240 239 239 243 243 239 237 235 233 232 232 227
4 1 357 355 353 353 352 347 342 341 340 338 340 341 340 340 339 336 336 333 331 323 311 302 293 282 263 240 241 261 262 247 242 242 240 241 239 234 229 226 224 221 222
358 356 354 353 350 352 349 343 337 334 334 335 337 336 338 338 335 336 336 335 332 327 319 312 299 283 270 225 211 227 265 291 262 242 240 239 240 233 229 225 220 215 213
356 354 351 348 348 349 349 347 344 340 340 342 339 336 335 334 332 332 333 333 331 330 326 319 307 287 277 260 223 203 205 229 261 275 248 249 249 238 233 226 220 218 215
352 349 347 346 346 349 350 350 348 348 343 338 334 329 328 328 328 332 335 334 331 329 327 325 320 300 279 270 253 233 222 187 194 257 276 264 264 247 239 231 225 219 215
351 349 347 345 348 351 351 350 348 348 343 337 335 332 331 328 330 335 335 334 332 329 326 324 323 314 294 275 262 243 230 221 197 200 243 267 278 270 257 238 227 218 211
351 350 349 347 349 351 352 351 349 347 344 340 340 337 336 334 334 335 336 334 330 328 325 323 323 318 312 293 275 254 230 205 194 188 206 223 241 269 285 268 229 212 199
Height
1526 1526 1525 1526 1526 1527 1528 1528 1529 1529 1529 1530 1530 1531 1532 1532 1533 1534 1534 1535 1535 1535 1535 1535 1535 1535 1535 1535 1535 1536 1536 1536 1537 1537 1537 1538 1538 1539 1540 1541 1541 1542 1542
1528 1528 1528 1528 1528 1528 1529 1529 1529 1530 1530 1530 1530 1531 1531 1532 1532 1533 1533 1534 1534 1534 1534 1534 1534 1534 1535 1535 1535 1535 1535 1536 1536 1537 1537 1538 1539 1539 1540 1541 1542 1542 1543
1531 1530 1530 1530 1530 1530 1530 1530 1530 1530 1530 1530 1530 1530 1530 1531 1531 1532 1532 1533 1533 1533 1533 1533 1533 1534 1534 1534 1535 1535 1535 1536 1536 1537 1537 1538 1538 1539 1540 1541 1542 1542 1543
1533 1533 1532 1532 1531 1531 1531 1531 1530 1530 1530 1530 1529 1529 1530 1530 1530 1530 1531 1531 1531 1532 1532 1532 1532 1532 1533 1533 1534 1534 1535 1535 1536 1536 1537 1538 1538 1539 1540 1540 1541 1542 1543
1535 1535 1534 1533 1533 1532 1532 1531 1531 1530 1530 1529 1529 1529 1529 1529 1529 1529 1529 1530 1530 1530 1530 1530 1531 1531 1532 1532 1533 1533 1534 1535 1535 1536 1537 1537 1538 1538 1539 1540 1541 1542 1543
1537 1537 1536 1535 1534 1533 1532 1531 1531 1530 1529 1529 1528 1528 1527 1527 1528 1528 1528 1528 1528 1528 1528 1529 1529 1530 1530 1531 1531 1532 1533 1533 1534 1535 1536 1536 1537 1538 1538 1539 1540 1541 1542
1538 1538 1537 1536 1535 1534 1532 1531 1531 1530 1529 1528 1527 1527 1526 1526 1526 1526 1526 1526 1526 1526 1526 1527 1527 1528 1528 1529 1529 1530 1531 1532 1532 1533 1534 1535 1536 1537 1537 1538 1539 1540 1541
1537 1537 1536 1535 1535 1534 1533 1532 1531 1530 1529 1528 1527 1525 1525 1524 1524 1524 1524 1524 1524 1524 1524 1524 1525 1525 1526 1526 1527 1528 1529 1529 1530 1531 1532 1533 1534 1535 1536 1537 1537 1539 1540
1537 1537 1536 1534 1534 1533 1533 1532 1531 1530 1529 1527 1526 1525 1524 1523 1522 1522 1521 1521 1521 1521 1521 1522 1522 1523 1523 1524 1524 1525 1526 1527 1527 1528 1529 1530 1532 1533 1534 1535 1536 1537 1538
1538 1537 1536 1535 1534 1533 1532 1531 1530 1529 1527 1526 1525 1523 1522 1521 1520 1519 1519 1519 1518 1518 1518 1519 1519 1519 1520 1520 1521 1522 1523 1523 1524 1525 1526 1527 1529 1530 1532 1533 1534 1535 1536
1540 1540 1539 1537 1535 1533 1532 1530 1529 1527 1526 1524 1523 1521 1520 1519 1518 1517 1516 1516 1516 1515 1515 1516 1516 1516 1517 1517 1517 1518 1519 1519 1521 1522 1523 1524 1525 1527 1528 1530 1531 1532 1534
1544 1543 1541 1539 1537 1535 1533 1531 1529 1528 1526 1524 1522 1520 1518 1517 1516 1515 1515 1514 1513 1513 1513 1512 1513 1513 1513 1513 1514 1514 1514 1515 1516 1517 1519 1520 1522 1523 1525 1526 1528 1529 1531
1549 1546 1544 1541 1539 1536 1534 1532 1530 1528 1526 1523 1521 1519 1517 1515 1514 1513 1512 1511 1511 1510 1510 1510 1509 1509 1510 1510 1510 1510 1510 1510 1511 1513 1514 1516 1517 1519 1520 1522 1524 1526 1528
1552 1549 1546 1543 1540 1537 1535 1532 1530 1527 1525 1523 1520 1518 1516 1514 1512 1511 1509 1508 1508 1507 1507 1506 1506 1506 1506 1506 1506 1506 1506 1506 1506 1508 1509 1511 1513 1514 1516 1518 1520 1522 1524
1554 1551 1548 1545 1541 1538 1535 1532 1529 1527 1524 1522 1519 1517 1514 1512 1510 1509 1507 1506 1504 1503 1503 1502 1502 1502 1502 1502 1502 1502 1502 1502 1502 1503 1504 1506 1508 1509 1511 1513 1515 1518 1520
1556 1553 1550 1546 1543 1540 1536 1532 1529 1526 1522 1520 1517 1514 1512 1509 1507 1505 1504 1502 1501 1499 1498 1498 1497 1497 1497 1497 1497 1497 1497 1498 1498 1498 1499 1500 1502 1504 1506 1508 1510 1513 1515
1559 1556 1551 1547 1543 1539 1535 1532 1528 1525 1521 1517 1514 1511 1508 1505 1502 1500 1499 1497 1496 1495 1493 1493 1492 1492 1492 1492 1492 1492 1492 1492 1493 1493 1494 1495 1496 1498 1500 1502 1505 1507 1510
1561 1557 1552 1548 1543 1538 1534 1530 1526 1522 1518 1514 1511 1507 1504 1500 1497 1494 1493 1491 1490 1488 1487 1487 1486 1486 1486 1486 1486 1486 1486 1487 1487 1487 1488 1489 1490 1492 1494 1496 1499 1501 1504
1562 1557 1552 1547 1542 1537 1532 1528 1523 1519 1515 1511 1507 1503 1499 1495 1492 1488 1486 1484 1482 1481 1480 1480 1479 1479 1479 1479 1479 1480 1480 1480 1480 1481 1481 1482 1483 1485 1488 1490 1493 1495 1498
1562 1557 1551 1546 1540 1535 1529 1524 1519 1515 1511 1507 1503 1499 1495 1490 1486 1482 1479 1477 1475 1473 1473 1472 1472 1472 1471 1472 1472 1472 1473 1473 1473 1474 1474 1475 1476 1478 1481 1484 1487 1489 1492
1560 1555 1549 1543 1538 1532 1526 1520 1514 1510 1505 1501 1498 1495 1490 1486 1481 1477 1473 1470 1468 1466 1465 1464 1464 1463 1464 1465 1465 1465 1465 1466 1465 1466 1467 1468 1469 1471 1474 1476 1479 1482 1485
1560 1554 1548 1542 1536 1530 1525 1519 1514 1509 1504 1499 1495 1491 1487 1482 1477 1473 1468 1464 1462 1459 1457 1457 1457 1456 1455 1458 1459 1459 1458 1458 1457 1459 1459 1460 1461 1463 1465 1469 1472 1475 1478
1559 1553 1547 1541 1535 1529 1523 1517 1511 1505 1500 1495 1489 1485 1482 1477 1473 1469 1464 1460 1457 1454 1451 1450 1449 1448 1448 1449 1451 1453 1452 1450 1451 1452 1452 1453 1454 1455 1457 1460 1463 1467 1470
1559 1552 1546 1539 1533 1527 1521 1515 1509 1503 1497 1492 1487 1482 1478 1474 1469 1465 1460 1456 1452 1449 1446 1443 1442 1441 1441 1441 1443 1444 1445 1445 1447 1446 1446 1447 1448 1448 1450 1452 1455 1458 1462
1557 1550 1544 1538 1532 1525 1519 1514 1508 1502 1496 1490 1484 1479 1473 1468 1464 1460 1455 1451 1447 1444 1441 1438 1436 1435 1434 1434 1435 1436 1438 1438 1439 1440 1440 1441 1442 1443 1443 1445 1447 1450 1454
1555 1548 1542 1535 1530 1524 1518 1512 1506 1500 1493 1487 1481 1475 1469 1464 1459 1455 1450 1446 1442 1439 1436 1433 1430 1428 1427 1427 1428 1429 1430 1431 1431 1433 1434 1435 1436 1437 1438 1439 1441 1443 1446